| time (UTC) | temp C | wind direction | speed KPH | gust KPH | rain 1hr cm | rain 24hr cm | rain mn cm | humidity % | barometer mb |
| 20260502232944 | 26 | 180 | 0.0 | 0.0 | 0.00 | 0.00 | 0.00 | 95 | |
| 20260502230942 | 26 | 180 | 0.0 | 0.0 | 0.00 | 0.00 | 0.00 | 95 | |
| 20260502224941 | 26 | 270 | 11.3 | 24.1 | 0.00 | 0.00 | 0.00 | 95 | |
| 20260502223940 | 26 | 270 | 0.0 | 11.3 | 0.00 | 0.00 | 0.00 | 95 | |
| 20260502222940 | 26 | 270 | 0.0 | 0.0 | 0.00 | 0.00 | 0.00 | 95 | |
| 20260502221938 | 26 | 270 | 0.0 | 0.0 | 0.00 | 0.00 | 0.00 | 95 | |
| 20260502215936 | 26 | 315 | 0.0 | 0.0 | 0.00 | 0.00 | 0.00 | 95 | |
| 20260502213934 | 27 | 315 | 0.0 | 0.0 | 0.00 | 0.00 | 0.00 | 95 | |
| 20260502211932 | 26 | 315 | 0.0 | 0.0 | 0.00 | 0.00 | 0.00 | 95 | |
| 20260502185920 | 27 | 315 | 0.0 | 11.3 | 0.00 | 0.00 | 0.00 | 95 | |
| 20260502184920 | 26 | 315 | 0.0 | 24.1 | 0.00 | 0.00 | 0.00 | 95 | |
| 20260502183918 | 26 | 315 | 0.0 | 24.1 | 0.00 | 0.00 | 0.00 | 95 | |
| 20260502181917 | 27 | 0 | 0.0 | 24.1 | 0.00 | 0.00 | 0.00 | 95 | |
| 20260502180916 | 26 | 0 | 0.0 | 24.1 | 0.00 | 0.00 | 0.00 | 95 | |
| 20260502163909 | 26 | 0 | 0.0 | 24.1 | 0.00 | 0.00 | 0.00 | 95 | |
| 20260502162908 | 27 | 0 | 11.3 | 49.9 | 0.00 | 0.00 | 0.00 | 95 | |
| 20260502161908 | 27 | 90 | 0.0 | 24.1 | 0.00 | 0.00 | 0.00 | 95 | |
| 20260502160908 | 27 | 90 | 11.3 | 37.0 | 0.00 | 0.00 | 0.00 | 95 | |
| 20260502151903 | 27 | 180 | 0.0 | 24.1 | 0.00 | 0.00 | 0.23 | 95 | |
| 20260502150902 | 28 | 180 | 11.3 | 24.1 | 0.00 | 0.00 | 0.23 | 95 | |
| 20260502122847 | 28 | 315 | 24.1 | 49.9 | 0.00 | 0.00 | 0.23 | 95 | |
| 20260502120847 | 30 | 315 | 0.0 | 49.9 | 0.00 | 0.00 | 0.23 | 95 | |
| 20260502115845 | 30 | 315 | 11.3 | 37.0 | 0.00 | 0.00 | 0.23 | 95 | |
| 20260502114845 | 30 | 315 | 11.3 | 24.1 | 0.00 | 0.00 | 0.23 | 95 | |
| 20260502112843 | 30 | 0 | 0.0 | 24.1 | 0.00 | 0.00 | 0.23 | 95 | |
| 20260502110841 | 30 | 0 | 0.0 | 24.1 | 0.00 | 0.00 | 0.23 | 95 | |
| 20260502104839 | 30 | 0 | 11.3 | 49.9 | 0.00 | 0.00 | 0.23 | 95 | |
| 20260502102836 | 30 | 315 | 0.0 | 49.9 | 0.00 | 0.00 | 0.23 | 95 | |
| 20260502101836 | 30 | 315 | 24.1 | 75.6 | 0.00 | 0.00 | 0.23 | 95 | |
| 20260502070821 | 31 | 180 | 101.4 | 228.5 | 0.00 | 0.00 | 0.23 | 33 | |
| 20260502064820 | 33 | 180 | 24.1 | 177.0 | 0.00 | 0.00 | 0.23 | 10 | |
| 20260502062818 | 35 | 315 | 24.1 | 127.1 | 0.00 | 0.00 | 0.23 | 40 | |
| 20260502060816 | 33 | 180 | 37.0 | 101.4 | 0.00 | 0.00 | 0.23 | 10 | |
| 20260502054815 | 32 | 180 | 88.5 | 127.1 | 0.00 | 0.00 | 0.23 | 32 | |
| 20260502053813 | 32 | 180 | 101.4 | 140.0 | 0.00 | 0.00 | 0.23 | 36 | |
| 20260502051812 | 35 | 180 | 49.9 | 114.3 | 0.00 | 0.00 | 0.23 | 10 | |
| 20260502045811 | 33 | 180 | 11.3 | 140.0 | 0.00 | 0.00 | 0.23 | 10 | |
| 20260502043810 | 33 | 135 | 37.0 | 101.4 | 0.00 | 0.00 | 0.23 | 10 | |
| 20260502041808 | 31 | 0 | 0.0 | 114.3 | 0.00 | 0.00 | 0.23 | 18 | |
| 20260502035806 | 32 | 0 | 11.3 | 127.1 | 0.00 | 0.00 | 0.23 | 30 | |
| 20260502033804 | 31 | 0 | 24.1 | 101.4 | 0.00 | 0.00 | 0.23 | 84 | |
| 20260502031803 | 30 | 180 | 49.9 | 88.5 | 0.00 | 0.00 | 0.23 | 82 | |
| 20260502030802 | 30 | 180 | 11.3 | 62.8 | 0.00 | 0.00 | 0.23 | 95 | |
| 20260502024801 | 30 | 180 | 24.1 | 101.4 | 0.00 | 0.00 | 0.23 | 95 | |
| 20260502023800 | 30 | 180 | 24.1 | 75.6 | 0.00 | 0.00 | 0.23 | 95 | |
| 20260502020757 | 28 | 180 | 24.1 | 101.4 | 0.00 | 0.00 | 0.23 | 95 | |
| 20260502015757 | 28 | 180 | 24.1 | 75.6 | 0.00 | 0.00 | 0.23 | 95 | |
| 20260502012754 | 28 | 0 | 11.3 | 75.6 | 0.00 | 0.00 | 0.23 | 95 | |
| 20260502011752 | 27 | 270 | 11.3 | 49.9 | 0.00 | 0.00 | 0.23 | 95 | |
| 20260502005751 | 27 | 270 | 24.1 | 37.0 | 0.00 | 0.00 | 0.23 | 95 | |
| 20260502004751 | 27 | 270 | 0.0 | 49.9 | 0.00 | 0.00 | 0.23 | 95 | |
| 20260502003750 | 26 | 45 | 0.0 | 37.0 | 0.00 | 0.00 | 0.23 | 95 | |
| 20260502001748 | 26 | 0 | 11.3 | 37.0 | 0.00 | 0.00 | 0.23 | 95 | |
| 20260502000748 | 25 | 270 | 24.1 | 37.0 | 0.00 | 0.00 | 0.23 | 81 | |
| 20260501235747 | 25 | 270 | 24.1 | 37.0 | 0.00 | 0.00 | 0.23 | 95 | |
| 20260501234747 | 25 | 315 | 0.0 | 24.1 | 0.00 | 0.00 | 0.23 | 95 |